DW2893 Weather Reports


Display with metric or nautical units.
time (UTC)temp
F
wind
direction
speed
MPH
gust
MPH
rain 1hr
in
rain 24hr
in
rain mn
in
humidity
%
barometer
mb
20260901082805 84 345 5.0 9.0 0.00 0.00 0.00 60 1014.2
20260901082306 85 20 5.0 7.0 0.00 0.00 0.00 60 1014.2
20260901081305 85 42 5.0 9.0 0.00 0.00 0.00 60 1014.1
20260901080806 85 47 5.0 8.0 0.00 0.00 0.00 60 1014.2
20260901080306 85 137 5.0 8.0 0.00 0.00 0.00 60 1014.2
20260901074805 85 98 5.0 9.0 0.00 0.00 0.00 60 1014.2
20260901074305 85 47 5.0 8.0 0.00 0.00 0.00 59 1014.2
20260901073305 85 105 5.0 7.0 0.00 0.00 0.00 59 1014.2
20260901072309 85 119 4.0 8.0 0.00 0.00 0.00 59 1014.2
20260901071805 85 24 5.0 8.0 0.00 0.00 0.00 59 1014.2
20260901070805 85 105 4.0 8.0 0.00 0.00 0.00 58 1014.3
20260901070305 85 129 5.0 8.0 0.00 0.00 0.00 58 1014.3
20260901065805 86 123 3.0 7.0 0.00 0.00 0.00 57 1014.3
20260901065306 86 127 4.0 8.0 0.00 0.00 0.00 57 1014.1
20260901064805 86 126 3.0 7.0 0.00 0.00 0.00 57 1014.2
20260901064305 86 13 5.0 8.0 0.00 0.00 0.00 57 1014.1
20260901063805 86 143 3.0 6.0 0.00 0.00 0.00 56 1014.0
20260901061805 86 102 4.0 8.0 0.00 0.00 0.00 55 1013.8
20260901060305 86 122 5.0 9.0 0.00 0.00 0.00 54 1013.8
20260901055805 87 131 5.0 7.0 0.00 0.00 0.00 54 1013.8
20260901054805 87 137 3.0 7.0 0.00 0.00 0.00 53 1013.6
20260901054305 87 130 3.0 8.0 0.00 0.00 0.00 53 1013.6
20260901050942 87 128 3.0 6.0 0.00 0.00 0.00 51 1013.3
20260901050306 87 141 3.0 6.0 0.00 0.00 0.00 51 1013.3
20260901045805 87 128 4.0 8.0 0.00 0.00 0.00 50 1013.3
20260901044305 87 102 4.0 8.0 0.00 0.00 0.00 50 1013.1
20260901043805 88 110 2.0 3.0 0.00 0.00 0.00 50 1013.1
20260901043305 88 126 2.0 5.0 0.00 0.00 0.00 49 1013.1
20260901042306 88 112 3.0 7.0 0.00 0.00 0.00 49 1013.1
20260901041304 88 113 3.0 5.0 0.00 0.00 0.00 50 1013.1
20260901035306 88 112 2.0 3.0 0.00 0.00 0.00 49 1013.1
20260901034804 89 111 1.0 3.0 0.00 0.00 0.00 48 1013.1
20260901034304 89 111 1.0 3.0 0.00 0.00 0.00 48 1013.1
20260901033804 89 111 2.0 3.0 0.00 0.00 0.00 47 1013.0
20260901032804 90 110 3.0 6.0 0.00 0.00 0.00 47 1013.0
20260901032306 90 148 2.0 5.0 0.00 0.00 0.00 46 1013.0
20260901030304 91 146 2.0 5.0 0.00 0.00 0.00 43 1012.8
20260901025805 91 148 2.0 3.0 0.00 0.00 0.00 43 1012.8
20260901023804 92 83 4.0 7.0 0.00 0.00 0.00 42 1012.5
20260901020805 93 146 3.0 6.0 0.00 0.00 0.00 42 1012.3
20260901020305 93 144 2.0 6.0 0.00 0.00 0.00 41 1012.3
20260901015804 93 136 3.0 6.0 0.00 0.00 0.00 41 1012.3
20260901015306 93 133 3.0 6.0 0.00 0.00 0.00 41 1012.3
20260901014804 94 140 3.0 7.0 0.00 0.00 0.00 40 1012.1
20260901014304 94 122 5.0 8.0 0.00 0.00 0.00 40 1012.1
20260901013804 94 133 3.0 8.0 0.00 0.00 0.00 40 1012.1
20260901013304 94 112 3.0 7.0 0.00 0.00 0.00 39 1011.9
20260901012306 95 147 5.0 7.0 0.00 0.00 0.00 39 1011.9
20260901011304 95 93 5.0 8.0 0.00 0.00 0.00 39 1011.9
20260901010304 96 66 5.0 8.0 0.00 0.00 0.00 37 1011.9
20260901005306 96 137 5.0 10.0 0.00 0.00 0.00 37 1011.9
20260901004304 96 130 5.0 8.0 0.00 0.00 0.00 36 1011.9
20260901003804 97 137 5.0 12.0 0.00 0.00 0.00 36 1011.9
20260901003305 97 115 3.0 7.0 0.00 0.00 0.00 36 1011.9
20260901002805 97 24 6.0 12.0 0.00 0.00 0.00 35 1011.9
20260901000313 98 126 6.0 14.0 0.00 0.00 0.00 34 1011.8
20260831235308 98 16 6.0 12.0 0.00 0.00 0.00 34 1011.7
20260831234808 98 84 7.0 15.0 0.00 0.00 0.00 34 1011.9
20260831234308 98 126 6.0 12.0 0.00 0.00 0.00 34 1011.9
20260831233808 98 110 3.0 8.0 0.00 0.00 0.00 34 1011.9
20260831230809 99 133 5.0 12.0 0.00 0.00 0.00 33 1011.7
20260831225808 99 99 8.0 13.0 0.00 0.00 0.00 32 1011.9
20260831225308 99 135 8.0 15.0 0.00 0.00 0.00 32 1011.9
20260831223309 100 87 6.0 14.0 0.00 0.00 0.00 33 1012.0
20260831222808 100 95 7.0 14.0 0.00 0.00 0.00 33 1012.0
20260831222308 100 126 5.0 13.0 0.00 0.00 0.00 32 1012.2
20260831215308 99 121 1.0 9.0 0.00 0.00 0.00 33 1012.5
20260831213808 100 102 6.0 12.0 0.00 0.00 0.00 31 1012.5
20260831212808 100 120 3.0 9.0 0.00 0.00 0.00 31 1012.5
20260831210308 100 39 9.0 14.0 0.00 0.00 0.00 32 1012.9
20260831205808 100 138 9.0 20.0 0.00 0.00 0.00 34 1012.9
20260831204808 100 92 5.0 9.0 0.00 0.00 0.00 34 1013.3
20260831204307 100 153 4.0 16.0 0.00 0.00 0.00 34 1013.3
20260831195308 99 125 3.0 12.0 0.00 0.00 0.00 34 1013.9
20260831194808 99 341 5.0 15.0 0.00 0.00 0.00 34 1014.1
20260831193808 100 206 7.0 12.0 0.00 0.00 0.00 34 1014.1
20260831192308 99 162 6.0 13.0 0.00 0.00 0.00 34 1014.2
20260831190808 99 138 4.0 9.0 0.00 0.00 0.00 36 1014.2
20260831190308 100 310 6.0 12.0 0.00 0.00 0.00 34 1014.3
20260831184807 99 65 6.0 13.0 0.00 0.00 0.00 36 1014.4
20260831183308 99 21 6.0 13.0 0.00 0.00 0.00 37 1014.9
20260831182307 98 115 6.0 14.0 0.00 0.00 0.00 38 1014.9
20260831181308 98 136 6.0 13.0 0.00 0.00 0.00 39 1014.9
20260831180807 98 24 9.0 14.0 0.00 0.00 0.00 39 1015.1
20260831180307 98 154 5.0 9.0 0.00 0.00 0.00 40 1015.1
20260831172307 96 248 4.0 9.0 0.00 0.00 0.00 45 1015.7
20260831171807 96 241 4.0 8.0 0.00 0.00 0.00 46 1015.7
20260831171307 96 198 5.0 13.0 0.00 0.00 0.00 44 1015.8
20260831170308 96 195 7.0 12.0 0.00 0.00 0.00 44 1015.8
20260831165807 96 87 6.0 10.0 0.00 0.00 0.00 45 1015.8
20260831164807 95 237 4.0 9.0 0.00 0.00 0.00 46 1015.8
20260831164307 95 192 5.0 10.0 0.00 0.00 0.00 46 1015.7
20260831162307 94 178 5.0 9.0 0.00 0.00 0.00 45 1016.0
20260831161307 94 342 7.0 12.0 0.00 0.00 0.00 46 1016.0
20260831160807 93 209 5.0 12.0 0.00 0.00 0.00 46 1016.0
20260831155806 93 236 7.0 15.0 0.00 0.00 0.00 45 1016.0
20260831155307 93 200 5.0 9.0 0.00 0.00 0.00 47 1016.0
20260831154807 93 212 6.0 12.0 0.00 0.00 0.00 47 1016.0
20260831154307 93 250 5.0 10.0 0.00 0.00 0.00 47 1015.9
20260831151807 91 219 5.0 12.0 0.00 0.00 0.00 47 1015.8
20260831150307 89 200 3.0 10.0 0.00 0.00 0.00 51 1015.6
20260831145807 89 209 6.0 14.0 0.00 0.00 0.00 53 1015.6
20260831144306 87 353 5.0 14.0 0.00 0.00 0.00 55 1015.6
20260831142306 86 199 4.0 7.0 0.00 0.00 0.00 61 1015.5
20260831141307 85 209 3.0 10.0 0.00 0.00 0.00 62 1015.5
20260831140306 85 156 3.0 9.0 0.00 0.00 0.00 64 1015.5
20260831135806 84 115 3.0 8.0 0.00 0.00 0.00 65 1015.5
20260831134807 84 205 3.0 6.0 0.00 0.00 0.00 67 1015.5
20260831134306 83 153 5.0 7.0 0.00 0.00 0.00 67 1015.4
20260831133806 83 61 4.0 8.0 0.00 0.00 0.00 68 1015.4
20260831133306 83 175 3.0 7.0 0.00 0.00 0.00 69 1015.4
20260831132806 83 179 5.0 8.0 0.00 0.00 0.00 69 1015.3
20260831131807 83 143 4.0 7.0 0.00 0.00 0.00 69 1015.0
20260831131307 82 158 3.0 6.0 0.00 0.00 0.00 69 1015.0
20260831130807 82 157 4.0 6.0 0.00 0.00 0.00 69 1014.9
20260831124806 82 135 4.0 8.0 0.00 0.00 0.00 70 1014.7
20260831123806 82 168 3.0 6.0 0.00 0.00 0.00 69 1014.3
20260831123306 82 174 3.0 7.0 0.00 0.00 0.00 69 1014.3
20260831122806 82 212 4.0 8.0 0.00 0.00 0.00 69 1014.3
20260831122307 82 210 4.0 10.0 0.00 0.00 0.00 69 1014.2
20260831121307 81 131 5.0 9.0 0.00 0.00 0.00 70 1014.1
20260831120806 81 193 5.0 9.0 0.00 0.00 0.00 70 1013.9
20260831120307 81 172 5.0 8.0 0.00 0.00 0.00 71 1013.9
20260831115806 81 193 4.0 7.0 0.00 0.00 0.00 71 1013.9
20260831115306 82 200 4.0 9.0 0.00 0.00 0.00 70 1013.9
20260831114807 82 200 3.0 8.0 0.00 0.00 0.00 70 1013.7
20260831114307 82 202 4.0 10.0 0.00 0.00 0.00 70 1013.7
20260831113807 82 193 5.0 9.0 0.00 0.00 0.00 70 1013.6
20260831113306 82 212 4.0 9.0 0.00 0.00 0.00 70 1013.6
20260831112806 82 193 5.0 10.0 0.00 0.00 0.00 69 1013.5
20260831112307 82 299 3.0 12.0 0.00 0.00 0.00 70 1013.5
20260831111306 82 200 4.0 9.0 0.00 0.00 0.00 69 1013.5
20260831105306 83 208 5.0 10.0 0.00 0.00 0.00 69 1013.4
20260831104806 83 152 5.0 10.0 0.00 0.00 0.00 68 1013.3
20260831103806 83 221 5.0 12.0 0.00 0.00 0.00 68 1013.3
20260831102805 83 1 5.0 13.0 0.00 0.00 0.00 67 1013.2
20260831102306 83 188 5.0 9.0 0.00 0.00 0.00 67 1013.2
20260831101806 83 184 4.0 8.0 0.00 0.00 0.00 67 1013.2
20260831101306 83 190 5.0 8.0 0.00 0.00 0.00 66 1013.2
20260831100306 83 202 5.0 8.0 0.00 0.00 0.00 66 1013.2
20260831095806 83 220 5.0 9.0 0.00 0.00 0.00 65 1013.2
20260831094806 83 208 3.0 10.0 0.00 0.00 0.00 64 1013.2
20260831092806 84 232 5.0 9.0 0.00 0.00 0.00 63 1012.8
20260831085806 85 199 6.0 12.0 0.00 0.00 0.00 60 1012.8
20260831084806 85 223 5.0 10.0 0.00 0.00 0.00 59 1012.8
20260831084305 85 189 5.0 9.0 0.00 0.00 0.00 59 1012.9